| time (UTC) | temp F | wind direction | speed MPH | gust MPH | rain 1hr in | rain 24hr in | rain mn in | humidity % | barometer mb |
| 20260902043210 | 89 | 86 | 0.0 | 1.0 | 0.00 | 0.00 | 0.00 | 51 | 1012.8 |
| 20260902042206 | 89 | 86 | 0.0 | 3.0 | 0.00 | 0.00 | 0.00 | 51 | 1012.8 |
| 20260902041207 | 90 | 91 | 1.0 | 3.0 | 0.00 | 0.00 | 0.00 | 51 | 1012.7 |
| 20260902041138 | 90 | 79 | 1.0 | 3.0 | 0.00 | 0.00 | 0.00 | 50 | 1012.6 |
| 20260902035202 | 90 | 126 | 1.0 | 6.0 | 0.00 | 0.00 | 0.00 | 50 | 1012.7 |
| 20260902034202 | 90 | 80 | 1.0 | 4.0 | 0.00 | 0.00 | 0.00 | 50 | 1012.8 |
| 20260902033201 | 90 | 80 | 1.0 | 4.0 | 0.00 | 0.00 | 0.00 | 49 | 1012.7 |
| 20260902032158 | 90 | 88 | 1.0 | 3.0 | 0.00 | 0.00 | 0.00 | 49 | 1012.5 |
| 20260902031159 | 91 | 104 | 1.0 | 5.0 | 0.00 | 0.00 | 0.00 | 49 | 1012.4 |
| 20260902030159 | 91 | 96 | 1.0 | 3.0 | 0.00 | 0.00 | 0.00 | 48 | 1012.3 |
| 20260902025157 | 91 | 94 | 1.0 | 4.0 | 0.00 | 0.00 | 0.00 | 48 | 1012.2 |
| 20260902024200 | 91 | 85 | 1.0 | 6.0 | 0.00 | 0.00 | 0.00 | 48 | 1012.1 |
| 20260902023159 | 91 | 109 | 1.0 | 5.0 | 0.00 | 0.00 | 0.00 | 48 | 1012.0 |
| 20260902022158 | 92 | 90 | 1.0 | 3.0 | 0.00 | 0.00 | 0.00 | 48 | 1011.7 |
| 20260902021159 | 92 | 82 | 1.0 | 4.0 | 0.00 | 0.00 | 0.00 | 48 | 1011.7 |
| 20260902020159 | 92 | 98 | 1.0 | 7.0 | 0.00 | 0.00 | 0.00 | 47 | 1011.6 |
| 20260902015200 | 92 | 76 | 1.0 | 4.0 | 0.00 | 0.00 | 0.00 | 47 | 1011.5 |
| 20260902014159 | 92 | 82 | 1.0 | 5.0 | 0.00 | 0.00 | 0.00 | 46 | 1011.3 |
| 20260902013154 | 93 | 87 | 1.0 | 4.0 | 0.00 | 0.00 | 0.00 | 45 | 1011.2 |
| 20260902012153 | 93 | 115 | 1.0 | 4.0 | 0.00 | 0.00 | 0.00 | 45 | 1011.1 |
| 20260902011150 | 94 | 85 | 2.0 | 6.0 | 0.00 | 0.00 | 0.00 | 44 | 1010.9 |
| 20260902010149 | 94 | 104 | 2.0 | 6.0 | 0.00 | 0.00 | 0.00 | 43 | 1010.8 |
| 20260902005153 | 94 | 114 | 2.0 | 7.0 | 0.00 | 0.00 | 0.00 | 43 | 1010.9 |
| 20260902004641 | 95 | 99 | 3.0 | 8.0 | 0.00 | 0.00 | 0.00 | 43 | 1010.9 |
| 20260902003151 | 96 | 159 | 2.0 | 8.0 | 0.00 | 0.00 | 0.00 | 42 | 1011.1 |
| 20260902002150 | 96 | 95 | 2.0 | 5.0 | 0.00 | 0.00 | 0.00 | 40 | 1011.1 |
| 20260902001632 | 96 | 109 | 2.0 | 6.0 | 0.00 | 0.00 | 0.00 | 39 | 1011.2 |
| 20260902000145 | 97 | 148 | 2.0 | 9.0 | 0.00 | 0.00 | 0.00 | 40 | 1011.2 |
| 20260901235631 | 97 | 190 | 2.0 | 11.0 | 0.00 | 0.00 | 0.00 | 39 | 1011.3 |
| 20260901234144 | 97 | 109 | 3.0 | 10.0 | 0.00 | 0.00 | 0.00 | 39 | 1011.3 |
| 20260901233144 | 98 | 194 | 3.0 | 8.0 | 0.00 | 0.00 | 0.00 | 38 | 1011.3 |
| 20260901232146 | 98 | 88 | 2.0 | 8.0 | 0.00 | 0.00 | 0.00 | 39 | 1011.5 |
| 20260901231617 | 98 | 185 | 3.0 | 10.0 | 0.00 | 0.00 | 0.00 | 38 | 1011.5 |
| 20260901230147 | 99 | 146 | 2.0 | 7.0 | 0.00 | 0.00 | 0.00 | 38 | 1011.3 |
| 20260901225143 | 99 | 78 | 2.0 | 8.0 | 0.00 | 0.00 | 0.00 | 39 | 1011.4 |
| 20260901224145 | 98 | 130 | 1.0 | 9.0 | 0.00 | 0.00 | 0.00 | 38 | 1011.4 |
| 20260901223139 | 98 | 90 | 2.0 | 7.0 | 0.00 | 0.00 | 0.00 | 38 | 1011.5 |
| 20260901222136 | 99 | 82 | 3.0 | 10.0 | 0.00 | 0.00 | 0.00 | 39 | 1011.5 |
| 20260901221137 | 98 | 156 | 3.0 | 9.0 | 0.00 | 0.00 | 0.00 | 39 | 1011.6 |
| 20260901220138 | 97 | 152 | 2.0 | 7.0 | 0.00 | 0.00 | 0.00 | 38 | 1011.7 |
| 20260901215137 | 98 | 169 | 2.0 | 8.0 | 0.00 | 0.00 | 0.00 | 38 | 1011.8 |
| 20260901214138 | 97 | 91 | 3.0 | 8.0 | 0.00 | 0.00 | 0.00 | 38 | 1011.8 |
| 20260901213137 | 98 | 85 | 3.0 | 10.0 | 0.00 | 0.00 | 0.00 | 39 | 1011.9 |
| 20260901212137 | 98 | 155 | 2.0 | 10.0 | 0.00 | 0.00 | 0.00 | 39 | 1012.0 |
| 20260901211138 | 99 | 78 | 2.0 | 7.0 | 0.00 | 0.00 | 0.00 | 39 | 1012.1 |
| 20260901210137 | 98 | 82 | 3.0 | 10.0 | 0.00 | 0.00 | 0.00 | 41 | 1012.1 |
| 20260901205137 | 98 | 62 | 4.0 | 10.0 | 0.00 | 0.00 | 0.00 | 41 | 1012.2 |
| 20260901204133 | 98 | 71 | 2.0 | 8.0 | 0.00 | 0.00 | 0.00 | 41 | 1012.4 |
| 20260901203134 | 97 | 90 | 4.0 | 9.0 | 0.00 | 0.00 | 0.00 | 41 | 1012.4 |
| 20260901202134 | 97 | 95 | 4.0 | 9.0 | 0.00 | 0.00 | 0.00 | 41 | 1012.5 |
| 20260901201135 | 96 | 87 | 2.0 | 7.0 | 0.00 | 0.00 | 0.00 | 41 | 1012.6 |
| 20260901200144 | 96 | 82 | 3.0 | 9.0 | 0.00 | 0.00 | 0.00 | 42 | 1012.8 |
| 20260901200057 | 96 | 82 | 3.0 | 9.0 | 0.00 | 0.00 | 0.00 | 42 | 1012.9 |
| 20260901194129 | 96 | 159 | 3.0 | 10.0 | 0.00 | 0.00 | 0.00 | 43 | 1012.9 |
| 20260901193130 | 95 | 158 | 4.0 | 11.0 | 0.00 | 0.00 | 0.00 | 45 | 1013.1 |
| 20260901192128 | 96 | 38 | 4.0 | 12.0 | 0.00 | 0.00 | 0.00 | 43 | 1013.1 |
| 20260901191128 | 96 | 82 | 4.0 | 12.0 | 0.00 | 0.00 | 0.00 | 44 | 1013.3 |
| 20260901190130 | 95 | 28 | 4.0 | 9.0 | 0.00 | 0.00 | 0.00 | 44 | 1013.4 |
| 20260901185128 | 96 | 82 | 3.0 | 12.0 | 0.00 | 0.00 | 0.00 | 44 | 1013.6 |
| 20260901184128 | 96 | 79 | 2.0 | 7.0 | 0.00 | 0.00 | 0.00 | 45 | 1013.8 |
| 20260901183129 | 95 | 100 | 3.0 | 9.0 | 0.00 | 0.00 | 0.00 | 45 | 1014.0 |
| 20260901183049 | 95 | 80 | 4.0 | 9.0 | 0.00 | 0.00 | 0.00 | 44 | 1014.1 |
| 20260901181130 | 95 | 72 | 3.0 | 10.0 | 0.00 | 0.00 | 0.00 | 45 | 1014.3 |
| 20260901180129 | 95 | 184 | 5.0 | 14.0 | 0.00 | 0.00 | 0.00 | 45 | 1014.4 |
| 20260901175131 | 94 | 142 | 3.0 | 8.0 | 0.00 | 0.00 | 0.00 | 47 | 1014.5 |
| 20260901174127 | 95 | 142 | 3.0 | 9.0 | 0.00 | 0.00 | 0.00 | 47 | 1014.7 |
| 20260901173129 | 94 | 108 | 2.0 | 6.0 | 0.00 | 0.00 | 0.00 | 47 | 1014.8 |
| 20260901172620 | 94 | 74 | 3.0 | 10.0 | 0.00 | 0.00 | 0.00 | 47 | 1014.9 |
| 20260901171606 | 94 | 204 | 4.0 | 10.0 | 0.00 | 0.00 | 0.00 | 46 | 1015.0 |
| 20260901170124 | 93 | 165 | 3.0 | 7.0 | 0.00 | 0.00 | 0.00 | 50 | 1015.3 |
| 20260901165126 | 92 | 190 | 4.0 | 8.0 | 0.00 | 0.00 | 0.00 | 50 | 1015.5 |
| 20260901164122 | 92 | 218 | 3.0 | 12.0 | 0.00 | 0.00 | 0.00 | 50 | 1015.5 |
| 20260901163122 | 92 | 154 | 3.0 | 7.0 | 0.00 | 0.00 | 0.00 | 51 | 1015.5 |
| 20260901162122 | 91 | 182 | 2.0 | 6.0 | 0.00 | 0.00 | 0.00 | 53 | 1015.5 |
| 20260901161122 | 90 | 214 | 4.0 | 8.0 | 0.00 | 0.00 | 0.00 | 53 | 1015.5 |
| 20260901160125 | 90 | 265 | 3.0 | 8.0 | 0.00 | 0.00 | 0.00 | 54 | 1015.6 |
| 20260901155123 | 89 | 221 | 5.0 | 9.0 | 0.00 | 0.00 | 0.00 | 55 | 1015.6 |
| 20260901154558 | 89 | 153 | 4.0 | 9.0 | 0.00 | 0.00 | 0.00 | 56 | 1015.5 |
| 20260901153117 | 88 | 190 | 2.0 | 5.0 | 0.00 | 0.00 | 0.00 | 57 | 1015.5 |
| 20260901152640 | 88 | 178 | 3.0 | 8.0 | 0.00 | 0.00 | 0.00 | 58 | 1015.5 |
| 20260901152528 | 87 | 182 | 4.0 | 8.0 | 0.00 | 0.00 | 0.00 | 58 | 1015.6 |
| 20260901150116 | 87 | 163 | 5.0 | 10.0 | 0.00 | 0.00 | 0.00 | 59 | 1015.6 |
| 20260901145115 | 87 | 182 | 5.0 | 10.0 | 0.00 | 0.00 | 0.00 | 59 | 1015.6 |
| 20260901144115 | 86 | 199 | 5.0 | 9.0 | 0.00 | 0.00 | 0.00 | 60 | 1015.6 |
| 20260901143558 | 86 | 165 | 2.0 | 8.0 | 0.00 | 0.00 | 0.00 | 60 | 1015.7 |
| 20260901142113 | 85 | 147 | 2.0 | 6.0 | 0.00 | 0.00 | 0.00 | 61 | 1015.7 |
| 20260901141118 | 85 | 149 | 2.0 | 6.0 | 0.00 | 0.00 | 0.00 | 61 | 1015.7 |
| 20260901140555 | 85 | 184 | 3.0 | 7.0 | 0.00 | 0.00 | 0.00 | 62 | 1015.7 |
| 20260901135109 | 84 | 189 | 2.0 | 7.0 | 0.00 | 0.00 | 0.00 | 62 | 1015.7 |
| 20260901134541 | 84 | 178 | 1.0 | 5.0 | 0.00 | 0.00 | 0.00 | 63 | 1015.5 |
| 20260901133109 | 83 | 154 | 1.0 | 4.0 | 0.00 | 0.00 | 0.00 | 63 | 1015.4 |
| 20260901132108 | 83 | 106 | 0.0 | 2.0 | 0.00 | 0.00 | 0.00 | 64 | 1015.5 |
| 20260901131111 | 82 | 144 | 1.0 | 2.0 | 0.00 | 0.00 | 0.00 | 65 | 1015.4 |
| 20260901130108 | 81 | 177 | 0.0 | 2.0 | 0.00 | 0.00 | 0.00 | 67 | 1015.3 |
| 20260901125108 | 80 | 177 | 0.0 | 0.0 | 0.00 | 0.00 | 0.00 | 68 | 1015.0 |
| 20260901124110 | 79 | 177 | 0.0 | 2.0 | 0.00 | 0.00 | 0.00 | 68 | 1014.9 |
| 20260901123106 | 79 | 177 | 1.0 | 3.0 | 0.00 | 0.00 | 0.00 | 68 | 1014.7 |
| 20260901122107 | 79 | 177 | 1.0 | 3.0 | 0.00 | 0.00 | 0.00 | 68 | 1014.6 |
| 20260901121546 | 79 | 177 | 0.0 | 2.0 | 0.00 | 0.00 | 0.00 | 68 | 1014.6 |
| 20260901120545 | 79 | 177 | 0.0 | 0.0 | 0.00 | 0.00 | 0.00 | 67 | 1014.5 |
| 20260901115106 | 79 | 177 | 0.0 | 0.0 | 0.00 | 0.00 | 0.00 | 66 | 1014.6 |
| 20260901114547 | 80 | 177 | 1.0 | 3.0 | 0.00 | 0.00 | 0.00 | 65 | 1014.5 |
| 20260901113544 | 80 | 177 | 2.0 | 4.0 | 0.00 | 0.00 | 0.00 | 65 | 1014.4 |
| 20260901112552 | 80 | 177 | 2.0 | 4.0 | 0.00 | 0.00 | 0.00 | 65 | 1014.4 |
| 20260901111545 | 80 | 177 | 3.0 | 5.0 | 0.00 | 0.00 | 0.00 | 64 | 1014.4 |
| 20260901105102 | 80 | 219 | 3.0 | 5.0 | 0.00 | 0.00 | 0.00 | 64 | 1014.3 |
| 20260901104104 | 81 | 193 | 3.0 | 5.0 | 0.00 | 0.00 | 0.00 | 64 | 1014.3 |
| 20260901103101 | 81 | 203 | 4.0 | 6.0 | 0.00 | 0.00 | 0.00 | 63 | 1014.3 |
| 20260901102102 | 81 | 197 | 4.0 | 7.0 | 0.00 | 0.00 | 0.00 | 63 | 1014.2 |
| 20260901101102 | 82 | 202 | 4.0 | 7.0 | 0.00 | 0.00 | 0.00 | 62 | 1014.2 |
| 20260901100549 | 82 | 153 | 3.0 | 7.0 | 0.00 | 0.00 | 0.00 | 62 | 1014.2 |
| 20260901095106 | 82 | 169 | 4.0 | 9.0 | 0.00 | 0.00 | 0.00 | 62 | 1014.2 |
| 20260901094058 | 83 | 200 | 4.0 | 9.0 | 0.00 | 0.00 | 0.00 | 61 | 1014.3 |
| 20260901093549 | 83 | 158 | 4.0 | 10.0 | 0.00 | 0.00 | 0.00 | 61 | 1014.4 |
| 20260901092058 | 83 | 154 | 4.0 | 7.0 | 0.00 | 0.00 | 0.00 | 60 | 1014.4 |
| 20260901091057 | 83 | 153 | 4.0 | 10.0 | 0.00 | 0.00 | 0.00 | 59 | 1014.4 |
| 20260901090057 | 83 | 157 | 5.0 | 8.0 | 0.00 | 0.00 | 0.00 | 59 | 1014.3 |
| 20260901085057 | 83 | 155 | 5.0 | 11.0 | 0.00 | 0.00 | 0.00 | 59 | 1014.2 |
| 20260901084056 | 83 | 173 | 4.0 | 9.0 | 0.00 | 0.00 | 0.00 | 58 | 1014.2 |
| 20260901083519 | 84 | 159 | 4.0 | 11.0 | 0.00 | 0.00 | 0.00 | 55 | 1014.1 |
| 20260901083144 | 83 | 178 | 4.0 | 9.0 | 0.00 | 0.00 | 0.00 | 56 | 1014.1 |
| 20260901081052 | 84 | 187 | 4.0 | 9.0 | 0.00 | 0.00 | 0.00 | 54 | 1014.1 |
| 20260901080053 | 83 | 184 | 3.0 | 6.0 | 0.00 | 0.00 | 0.00 | 54 | 1013.9 |
| 20260901075051 | 83 | 165 | 1.0 | 5.0 | 0.00 | 0.00 | 0.00 | 53 | 1014.0 |
| 20260901074050 | 83 | 82 | 0.0 | 1.0 | 0.00 | 0.00 | 0.00 | 52 | 1014.0 |
| 20260901073051 | 83 | 82 | 0.0 | 0.0 | 0.00 | 0.00 | 0.00 | 51 | 1013.9 |
| 20260901072051 | 83 | 82 | 0.0 | 1.0 | 0.00 | 0.00 | 0.00 | 51 | 1013.9 |
| 20260901071055 | 83 | 82 | 0.0 | 1.0 | 0.00 | 0.00 | 0.00 | 51 | 1013.8 |
| 20260901070051 | 83 | 82 | 0.0 | 2.0 | 0.00 | 0.00 | 0.00 | 51 | 1013.8 |
| 20260901065536 | 83 | 82 | 0.0 | 2.0 | 0.00 | 0.00 | 0.00 | 50 | 1013.8 |
| 20260901064049 | 83 | 82 | 0.0 | 2.0 | 0.00 | 0.00 | 0.00 | 49 | 1013.7 |
| 20260901063048 | 84 | 82 | 1.0 | 4.0 | 0.00 | 0.00 | 0.00 | 49 | 1013.7 |
| 20260901062050 | 84 | 92 | 0.0 | 0.0 | 0.00 | 0.00 | 0.00 | 47 | 1013.6 |
| 20260901061050 | 85 | 92 | 0.0 | 2.0 | 0.00 | 0.00 | 0.00 | 47 | 1013.4 |
| 20260901060048 | 85 | 92 | 0.0 | 1.0 | 0.00 | 0.00 | 0.00 | 47 | 1013.4 |
| 20260901055048 | 85 | 92 | 0.0 | 0.0 | 0.00 | 0.00 | 0.00 | 47 | 1013.3 |
| 20260901054048 | 84 | 92 | 0.0 | 2.0 | 0.00 | 0.00 | 0.00 | 47 | 1013.2 |
| 20260901053048 | 84 | 92 | 0.0 | 1.0 | 0.00 | 0.00 | 0.00 | 48 | 1013.2 |
| 20260901052544 | 84 | 92 | 0.0 | 1.0 | 0.00 | 0.00 | 0.00 | 48 | 1013.1 |
| 20260901051047 | 84 | 92 | 0.0 | 1.0 | 0.00 | 0.00 | 0.00 | 48 | 1013.0 |
| 20260901050046 | 83 | 92 | 0.0 | 2.0 | 0.00 | 0.00 | 0.00 | 48 | 1013.0 |
| 20260901050012 | 84 | 92 | 0.0 | 0.0 | 0.00 | 0.00 | 0.00 | 47 | 1012.9 |
| 20260901044045 | 85 | 92 | 0.0 | 0.0 | 0.00 | 0.00 | 0.00 | 46 | 1012.9 |